Location: �pieds
(47.1435°N, 0.0457°W)
Time: 16:49:21
(UTC+00:00)

Daily predictions for brighter satellites

Satellite Brightness Start Highest point End
(mag) Time Altitude Azimuth Time Altitude Azimuth Time Altitude Azimuth
Cosmos 2208 Rocket 4.2 19:45:21 10° NNW 19:50:47 74° ENE 19:56:13 10° SSE
IRS-1A Rocket 4.4 19:45:47 10° SSE 19:51:28 71° ENE 19:57:19 10° NNW
SL-4 R/B 2.4 19:49:27 10° WNW 19:53:48 76° NNE 19:58:27 10° ESE
DELTA 2 R/B (1) 4.3 19:49:10 10° WSW 19:54:15 38° S 19:59:20 10° ESE
IGS 5A 4.4 19:51:52 10° SE 19:55:31 31° ENE 19:59:12 10° N
CZ-4 R/B 4.4 19:53:28 10° SW 19:55:45 14° W 19:58:00 10° WNW
FALCON 9 DEB 3.0 19:54:20 10° WNW 19:57:23 68° NNE 20:00:26 10° ESE
Cosmos 1943 3.8 19:56:29 10° NW 20:02:01 58° WSW 20:07:32 10° S
X-37B 0.9 20:00:35 10° WSW 20:03:40 47° SSE 20:06:46 10° E
Cosmos 2263 Rocket 2.9 19:59:36 10° SW 20:05:05 59° WNW 20:10:38 10° NNE
Cosmos 1606 3.0 20:02:08 10° SSE 20:05:44 44° E 20:09:21 10° NNE
Cosmos 841 Rocket 4.4 20:04:13 10° NNW 20:09:10 47° WSW 20:14:03 10° S
Landsat 7 4.4 20:05:33 10° SE 20:10:01 42° ENE 20:14:31 10° N
Sich 1 4.0 20:06:09 10° N 20:10:03 32° ENE 20:13:40 11° SE
Cosmos 1844 Rocket 3.2 20:05:56 10° S 20:11:00 38° ESE 20:16:06 10° NE
BREEZE-M DEB (TANK) 3.4 20:11:13 10° W 20:13:06 22° SSW 20:15:24 10° SSE
BREEZE-M R/B 2.8 20:21:12 10° SSW 20:23:29 25° SSE 20:24:56 15° E
MetOp-B 4.4 20:18:56 11° SE 20:23:58 54° ENE 20:29:11 10° N
OBJECT-B 2.8 20:21:36 10° SSW 20:24:26 28° W 20:27:19 10° NW
Cosmos 1844 4.2 20:19:25 10° S 20:24:43 40° ESE 20:29:59 10° NE
Cosmos 1862 4.5 20:22:17 10° NNW 20:26:06 44° W 20:29:54 10° SSW
Cosmos 1933 4.1 20:24:25 12° SSE 20:27:44 34° E 20:31:24 10° NNE
OE (NEXTSAT) 4.4 20:25:51 10° WSW 20:29:16 59° SSE 20:32:31 11° E
ERS-1 Rocket 4.2 20:31:14 14° ESE 20:34:35 28° ENE 20:38:49 10° N
Cosmos 1151 Rocket 4.2 20:34:17 17° SE 20:36:32 26° E 20:40:10 10° NNE
ARIANE 5 R/B 3.4 20:34:30 17° SE 20:37:18 35° ENE 20:41:16 10° N
ATLAS 5 CENTAUR R/B 2.8 20:32:38 10° NNW 20:37:52 48° NE 20:42:54 15° ESE
CREW DRAGON DEMO-1 DEB 4.2 20:37:15 10° WNW 20:39:42 32° N 20:42:08 10° ENE
Cosmos 1833 Rocket 4.3 20:37:53 10° N 20:42:23 23° NE 20:46:34 11° E
SPOT 1/Viking Rocket 3.7 20:38:43 16° SSE 20:42:53 61° ENE 20:48:01 10° N
Cosmos 1386 Rocket 4.4 20:37:20 10° N 20:43:22 81° E 20:49:05 12° S
Ariane Rocket 4.0 20:38:54 10° S 20:43:43 44° W 20:48:34 10° NNW
FALCON 9 DEB 3.6 20:42:34 10° WNW 20:45:26 40° SW 20:46:48 24° SSE
Cosmos 1745 Rocket 4.0 20:39:50 10° N 20:46:06 86° E 20:51:58 11° S
Cosmos 1805 Rocket 3.5 20:42:01 10° N 20:46:23 85° W 20:50:08 14° S
Cosmos 1709 Rocket 4.2 20:43:10 10° N 20:49:12 55° ENE 20:53:35 19° SSE
Cosmos 1437 Rocket 2.8 20:46:41 10° SSW 20:50:31 77° WNW 20:54:27 10° N
FALCON 9 DEB 3.9 20:49:36 10° WNW 20:52:23 33° SW 20:53:30 24° S
Gbstr 26 Del rocket 4.5 20:47:06 10° WSW 20:55:04 77° NNW 21:01:54 10° ENE
SPOT 3 Rocket 3.8 20:50:52 11° S 20:55:46 67° WSW 21:00:56 10° NNW
Cosmos 1354 Rocket 4.4 20:51:44 14° S 20:55:56 43° ESE 21:00:53 10° NE
Cosmos 1633 Rocket 3.5 20:52:05 10° N 20:56:21 47° ENE 20:58:36 25° SE
FALCON 9 DEB 3.6 20:55:11 10° WNW 20:58:04 38° SW 20:59:00 29° S
SPOT 5 3.6 20:55:30 21° SE 20:58:22 42° ENE 21:03:15 10° N
Cosmos 1782 3.3 20:56:56 25° SE 20:58:43 40° E 21:02:28 10° NNE
Cosmos 2315 Rocket 4.2 20:55:20 15° SSE 21:00:27 54° E 21:06:39 10° NNE
COSMOS 2406 4.4 20:57:27 10° NNW 21:02:27 31° NE 21:05:59 17° ESE
Meteor 1-20 Rocket 4.2 20:57:19 10° NNW 21:03:01 87° WSW 21:07:16 18° S
USA 290 2.1 21:02:06 10° NNW 21:05:23 78° ENE 21:06:28 38° SSE
S3M 4.2 20:59:04 10° SSW 21:05:27 79° W 21:11:51 10° N
Cosmos 1328 Rocket 4.0 21:06:36 27° SSE 21:08:33 44° E 21:12:46 10° NNE
Cosmos 2082 Rocket 3.9 21:06:55 10° N 21:11:10 21° NE 21:14:57 12° E
Intercosmos 24 4.2 21:07:26 10° SSW 21:11:24 60° W 21:14:55 10° N
CARTOSAT-1 3.5 21:11:00 29° SSE 21:13:09 72° ENE 21:17:28 10° N
Terra 2.4 21:14:55 27° ESE 21:16:58 42° ENE 21:21:28 10° N
USA 308 4.4 21:13:27 10° WNW 21:17:22 34° N 21:21:19 10° ENE
Cosmos 1486 Rocket 4.4 21:12:08 10° SSW 21:17:26 67° WNW 21:22:46 10° NNE
Cosmos 968 Rocket 4.3 21:13:57 10° SW 21:19:05 53° WNW 21:24:12 10° NNE
Cosmos 1666 Rocket 3.6 21:15:43 10° N 21:20:10 82° W 21:22:27 28° S
Cosmos 1500 3.5 21:16:44 10° N 21:20:25 48° ENE 21:21:17 39° ESE
USA 245 2.9 21:22:47 41° WSW 21:22:55 42° WSW 21:25:07 10° NNW
Resurs 01 Rocket 3.3 21:20:45 10° SSW 21:24:38 29° W 21:28:32 10° NW
CZ-4C R/B 3.3 21:19:13 10° NW 21:26:07 57° NE 21:31:36 21° ESE
Cosmos 1271 Rocket 4.4 21:27:36 20° E 21:27:36 20° E 21:30:12 10° NE
Cosmos 1242 Rocket 3.0 21:26:47 19° SSW 21:29:08 57° WNW 21:32:40 10° N
Cosmos 1602 3.9 21:25:34 10° NNW 21:29:24 65° W 21:30:58 33° SSW
JB-3 4.2 21:26:20 10° NNE 21:30:18 83° E 21:31:53 35° S
NOSS 3-3 (A) 4.0 21:26:12 17° S 21:30:23 49° ESE 21:36:35 10° NE
NOSS 3-3 (C) 4.0 21:26:23 18° S 21:30:30 49° ESE 21:36:41 10° NE
SL-4 R/B 3.3 21:29:15 10° WNW 21:33:17 33° SW 21:34:29 28° S
ATLAS 2AS CENTAUR R/B 4.2 21:27:12 10° NW 21:33:50 32° NNE 21:40:04 10° E
Cosmos 2278 Rocket 2.9 21:36:19 32° SE 21:37:12 33° ESE 21:42:13 10° NE
Cosmos 783 Rocket 4.5 21:33:49 10° NNW 21:39:06 83° WSW 21:41:19 36° SSE
DELTA 2 R/B (1) 4.3 21:35:07 10° WSW 21:40:02 33° SSW 21:40:48 32° S
X-37B 1.2 21:37:00 10° W 21:39:32 45° SW 21:39:32 45° SW
USA 215 4.2 21:38:51 10° E 21:44:59 45° NNE 21:51:07 10° NW
SJ 16-02 2.5 21:47:16 27° E 21:47:16 27° E 21:50:34 10° NE
Iridium 4 Rocket 3.7 21:49:01 37° SSE 21:51:16 69° E 21:57:06 10° N
Cosmos 773 Rocket 4.0 21:46:14 10° NNW 21:51:34 83° WSW 21:53:29 41° SSE
Spot 2 Rocket 4.3 21:49:04 24° SSW 21:51:49 45° W 21:56:41 10° NNW
Cosmos 1844 Rocket 4.0 21:49:40 10° WSW 21:54:52 39° NW 22:00:06 10° NNE
USA 305 3.9 21:56:43 10° NW 22:00:49 42° NNE 22:02:58 24° ENE
Cosmos 1812 2.6 22:00:48 68° SSW 22:01:15 86° W 22:05:09 10° N
Meteor 1-5 Rocket 4.0 21:57:14 10° NNW 22:02:42 85° W 22:04:31 43° S
Cosmos 1943 Rocket 4.4 22:08:48 10° E 22:08:48 10° E 22:08:55 10° E
Cosmos 1437 3.9 22:09:39 35° WNW 22:09:39 35° WNW 22:12:05 10° N
ERS-1 Rocket 3.8 22:11:13 30° SSW 22:13:11 43° W 22:17:59 10° NNW
ARIANE 5 R/B 4.3 22:12:03 20° SW 22:13:50 26° W 22:17:29 10° NW
Cosmos 1777 Rocket 3.9 22:14:05 37° SSW 22:16:11 85° WNW 22:21:26 10° NNE
H-2A R/B 3.8 22:15:24 10° N 22:19:34 62° WNW 22:20:37 45° SW
USA 306 3.6 22:15:44 10° NW 22:19:53 49° NNE 22:21:15 35° ENE
Cosmos 2154 Rocket 4.0 22:15:15 10° N 22:21:38 72° E 22:23:35 46° SSE
ATLAS 5 CENTAUR R/B 3.1 22:17:14 10° NW 22:22:36 42° WSW 22:24:25 34° SSW
Cosmos 1515 Rocket 4.1 22:21:43 40° SW 22:23:00 55° WNW 22:27:20 10° N
Cosmos 1743 4.1 22:22:10 10° NNE 22:25:10 28° ENE 22:25:10 28° ENE
Cosmos 1869 Rocket 3.5 22:21:54 10° N 22:26:13 67° E 22:26:20 66° E
Cosmos 1666 3.1 22:23:09 10° NNW 22:26:45 53° W 22:26:45 53° W
Cosmos 1833 Rocket 2.7 22:21:15 10° NNW 22:26:55 74° WSW 22:28:16 52° S
Cosmos 2184 Rocket 4.1 22:23:45 10° NNW 22:30:00 72° W 22:32:10 42° SSW
Meteor 1-27 Rocket 3.8 22:31:43 53° SSE 22:32:57 68° E 22:38:49 10° NNE
ALOS 2 3.8 22:34:29 29° ENE 22:34:51 29° ENE 22:38:39 10° N
SPOT 5 4.4 22:34:42 22° SW 22:36:33 28° W 22:41:00 10° NW
Cosmos 2074 Rocket 4.3 22:34:01 10° NNW 22:40:11 59° W 22:42:28 38° SSW
Cosmos 2084 3.7 22:42:55 55° W 22:43:34 65° NW 22:47:50 10° NE
USA 307 3.2 22:40:11 10° NW 22:44:26 61° NNE 22:44:50 57° NE
Cosmos 1707 Rocket 4.1 22:46:33 45° ENE 22:46:33 45° ENE 22:50:15 10° NNE
COSMOS 2406 3.5 22:41:32 10° NW 22:47:01 52° WSW 22:48:02 46° SW
Nadezhda 1 Rocket 4.0 22:47:56 46° SSW 22:50:01 81° W 22:56:20 10° N
Meteor 1-11 Rocket 4.1 22:47:49 10° NNW 22:53:44 63° W 22:55:12 48° SSW
Terra 3.4 22:53:47 23° WSW 22:54:52 25° W 22:58:47 10° NW
Cosmos 2082 Rocket 2.0 22:50:19 10° NNW 22:55:57 83° WSW 22:56:47 66° S
USA 308 3.1 22:53:34 10° WNW 22:57:44 70° NNE 22:57:44 70° NNE
Cosmos 2181 Rocket 4.4 22:57:25 43° ESE 22:58:20 46° E 23:04:10 10° NNE
Spot 4 3.7 22:59:10 79° SSE 22:59:28 87° ENE 23:04:22 10° NNW
Cosmos 990 Rocket 4.1 22:59:43 58° ESE 22:59:43 58° ESE 23:04:49 10° NNE
Cosmos 1340 Rocket 3.1 22:58:34 10° N 23:02:08 66° N 23:02:08 66° N
Cosmos 1271 Rocket 4.0 23:02:41 35° W 23:02:59 36° WNW 23:06:43 10° N
Cosmos 2112 Rocket 4.1 22:58:33 10° NNW 23:03:54 68° ENE 23:04:36 61° ESE
Cosmos 1536 3.6 23:04:55 10° NNW 23:08:23 45° WNW 23:08:23 45° WNW
Cosmos 2341 Rocket 4.0 23:02:59 10° N 23:09:25 84° E 23:10:49 58° SSE
Cosmos 2228 Rocket 4.0 23:11:15 39° W 23:11:45 40° WNW 23:15:58 10° N
NOSS 3-4 (A) 3.8 23:05:03 10° NW 23:12:02 76° SW 23:14:10 51° SSE
NOSS 3-4 (C) 3.8 23:05:09 10° NW 23:12:09 76° SW 23:14:16 50° SSE
CZ-4C R/B 3.5 23:07:50 10° NW 23:14:50 47° WSW 23:16:47 40° SSW
Cosmos 2366 rocket 4.1 23:10:30 10° N 23:16:38 62° ENE 23:17:51 52° SE
Cosmos 1975 3.9 23:16:56 10° N 23:20:04 38° NE 23:20:04 38° NE
Cosmos 1733 Rocket 3.2 23:16:43 10° N 23:20:35 69° N 23:20:35 69° N
Cosmos 2278 Rocket 3.1 23:18:05 24° WSW 23:21:09 44° NW 23:26:35 10° NNE
SJ 16-02 2.7 23:24:12 29° W 23:25:16 33° WNW 23:29:18 10° N
SeaSat 1 3.3 23:21:05 10° NE 23:24:55 37° E 23:24:55 37° E
ATLAS 2AS CENTAUR R/B 2.7 23:18:23 10° NW 23:25:51 85° NE 23:27:59 49° SE
USA 215 3.2 23:25:10 42° ESE 23:27:39 89° NNE 23:34:14 10° NW
Cosmos 1818 4.2 23:23:35 10° NNW 23:28:57 50° NE 23:30:38 37° E
Cosmos 1908 Rocket 4.5 23:26:31 10° N 23:30:37 41° ENE 23:30:37 41° ENE
Thor Agena Rocket 4.0 23:26:17 10° NNE 23:31:15 47° E 23:31:15 47° E
Cosmos 2218 Rocket 3.9 23:25:30 10° N 23:31:47 82° E 23:32:57 61° SSE
Cosmos 1680 Rocket 3.6 23:27:26 10° NNW 23:32:43 63° WSW 23:32:49 62° WSW
Cosmos 2369 Rocket 3.3 23:34:06 29° E 23:34:06 29° E 23:38:29 10° NE
Meteor 2-9 Rocket 4.1 23:32:04 10° N 23:37:57 87° ENE 23:38:37 71° SSE
Cosmos 1937 Rocket 3.4 23:40:21 76° E 23:40:21 76° E 23:45:26 10° NNE
USA 305 4.3 23:36:43 10° WNW 23:39:02 30° WNW 23:39:02 30° WNW
Meteor 2-4 Rocket 4.0 23:42:44 51° ESE 23:43:14 53° E 23:48:45 10° NNE
Meteor 1-18 Rocket 4.1 23:44:04 73° SSE 23:44:35 81° E 23:50:14 10° NNE
Cosmos 44 3.4 23:41:35 10° NW 23:47:03 84° NE 23:47:25 78° ESE
Cosmos 489 Rocket 4.4 23:40:52 10° NNW 23:47:07 79° ENE 23:48:22 59° SE
Cosmos 1238 Rocket 4.0 23:44:09 10° NNW 23:50:30 60° W 23:51:21 55° SW
Cosmos 1943 Rocket 2.1 23:50:18 70° SE 23:50:30 71° ESE 23:56:06 10° NNE
Nimbus 7 Rocket 4.2 23:45:19 10° NNE 23:51:13 85° ESE 23:52:02 68° S
Cosmos 858 Rocket 4.3 23:52:23 85° SSW 23:52:31 89° WNW 23:57:47 10° NNE
